• In Deutschland
  • Länderverzeichnis
  • Für 7 Tage
  • Wassertemperatur
  • Satellitenkarten
  • Wetterkarte
  • Widgets
  • user-avatar
    Anmelden

    Stündliche Wetter Janina

    Heute, 16 August, Donnerstag

    Zeit Temperatur Niederschläge Wind Luftdruck Luftfeuchtigkeit
    00:00 +19°C° 0,4 mm 1 m/S 686 mmHg 78%
    01:00 +19°C° 0,4 mm 1 m/S 685 mmHg 78%
    02:00 +18°C° 0,3 mm 1 m/S 685 mmHg 78%
    03:00 +18°C° 0,3 mm 1 m/S 685 mmHg 78%
    04:00 +18°C° 0,3 mm 1 m/S 685 mmHg 79%
    05:00 +19°C° 0,3 mm 1 m/S 685 mmHg 76%
    06:00 +20°C° 0,3 mm 1 m/S 686 mmHg 73%
    07:00 +21°C° 0,3 mm 1 m/S 686 mmHg 70%
    08:00 +23°C° 0,6 mm 1 m/S 686 mmHg 64%
    09:00 +24°C° 0,6 mm 1 m/S 687 mmHg 58%
    10:00 +26°C° 0,6 mm 1 m/S 687 mmHg 52%
    11:00 +26°C° 0,7 mm 1 m/S 687 mmHg 52%
    12:00 +26°C° 0,7 mm 1 m/S 687 mmHg 52%
    13:00 +26°C° 0,7 mm 1 m/S 687 mmHg 52%
    14:00 +26°C° 0,6 mm 1 m/S 687 mmHg 53%
    15:00 +26°C° 0,6 mm 1 m/S 686 mmHg 54%
    16:00 +26°C° 0,6 mm 1 m/S 686 mmHg 54%
    17:00 +24°C° 0,2 mm 1 m/S 686 mmHg 58%
    18:00 +22°C° 0,2 mm 1 m/S 686 mmHg 63%
    19:00 +21°C° 0,2 mm 1 m/S 686 mmHg 67%
    20:00 +20°C° 0,1 mm 1 m/S 686 mmHg 68%
    21:00 +20°C° 0,1 mm 1 m/S 686 mmHg 69%
    22:00 +19°C° 0,1 mm 1 m/S 686 mmHg 71%
    23:00 +19°C° 0 mm 1 m/S 686 mmHg 71%

    Morgen, 17 August, Freitag

    Zeit Temperatur Niederschläge Wind Luftdruck Luftfeuchtigkeit
    00:00 +19°C° 0 mm 1 m/S 686 mmHg 71%
    01:00 +18°C° 0 mm 1 m/S 686 mmHg 72%
    02:00 +18°C° 0 mm 1 m/S 686 mmHg 72%
    03:00 +18°C° 0 mm 1 m/S 685 mmHg 72%
    04:00 +18°C° 0 mm 1 m/S 685 mmHg 72%
    05:00 +19°C° 0 mm 1 m/S 686 mmHg 68%
    06:00 +21°C° 0 mm 1 m/S 686 mmHg 63%
    07:00 +22°C° 0 mm 1 m/S 687 mmHg 59%
    08:00 +24°C° 0 mm 1 m/S 687 mmHg 52%
    09:00 +26°C° 0 mm 1 m/S 688 mmHg 46%
    10:00 +28°C° 0 mm 1 m/S 688 mmHg 39%
    11:00 +29°C° 0 mm 1 m/S 688 mmHg 38%
    12:00 +29°C° 0 mm 1 m/S 688 mmHg 37%
    13:00 +30°C° 0 mm 2 m/S 688 mmHg 36%
    14:00 +29°C° 0 mm 2 m/S 687 mmHg 40%
    15:00 +28°C° 0 mm 2 m/S 687 mmHg 43%
    16:00 +27°C° 0 mm 1 m/S 687 mmHg 47%
    17:00 +25°C° 0 mm 1 m/S 687 mmHg 52%
    18:00 +24°C° 0 mm 1 m/S 687 mmHg 56%
    19:00 +22°C° 0 mm 1 m/S 686 mmHg 61%
    20:00 +22°C° 0,1 mm 1 m/S 687 mmHg 63%
    21:00 +21°C° 0,1 mm 1 m/S 687 mmHg 65%
    22:00 +21°C° 0,1 mm 1 m/S 687 mmHg 67%
    23:00 +20°C° 0 mm 1 m/S 687 mmHg 68%

    übermorgen, 18 August, Samstag

    Zeit Temperatur Niederschläge Wind Luftdruck Luftfeuchtigkeit
    00:00 +20°C° 0 mm 1 m/S 686 mmHg 69%
    01:00 +20°C° 0 mm 1 m/S 686 mmHg 70%
    02:00 +19°C° 0 mm 1 m/S 686 mmHg 70%
    03:00 +19°C° 0 mm 1 m/S 686 mmHg 70%
    04:00 +19°C° 0 mm 1 m/S 686 mmHg 70%
    05:00 +20°C° 0 mm 1 m/S 686 mmHg 66%
    06:00 +22°C° 0 mm 1 m/S 687 mmHg 62%
    07:00 +23°C° 0 mm 1 m/S 687 mmHg 57%
    08:00 +25°C° 0 mm 1 m/S 688 mmHg 51%
    09:00 +27°C° 0 mm 1 m/S 688 mmHg 45%
    10:00 +29°C° 0 mm 1 m/S 689 mmHg 38%
    11:00 +29°C° 0 mm 1 m/S 688 mmHg 39%
    12:00 +29°C° 0 mm 2 m/S 688 mmHg 39%
    13:00 +29°C° 0 mm 2 m/S 688 mmHg 40%
    14:00 +28°C° 0,1 mm 2 m/S 688 mmHg 44%
    15:00 +27°C° 0,1 mm 2 m/S 687 mmHg 47%
    16:00 +26°C° 0,1 mm 1 m/S 687 mmHg 51%
    17:00 +25°C° 0,5 mm 1 m/S 687 mmHg 56%
    18:00 +24°C° 0,5 mm 2 m/S 687 mmHg 62%
    19:00 +21°C° 0,5 mm 2 m/S 687 mmHg 67%
    20:00 +20°C° 0,8 mm 2 m/S 687 mmHg 71%
    21:00 +20°C° 0,8 mm 2 m/S 687 mmHg 74%
    22:00 +19°C° 0,8 mm 2 m/S 687 mmHg 77%
    23:00 +19°C° 0,2 mm 2 m/S 687 mmHg 77%

    19 August, Sonntag

    Zeit Temperatur Niederschläge Wind Luftdruck Luftfeuchtigkeit
    00:00 +18°C° 0,2 mm 2 m/S 687 mmHg 77%
    01:00 +18°C° 0,2 mm 2 m/S 687 mmHg 77%
    02:00 +18°C° 0 mm 2 m/S 687 mmHg 76%
    03:00 +18°C° 0 mm 2 m/S 687 mmHg 75%
    04:00 +17°C° 0 mm 2 m/S 686 mmHg 75%
    05:00 +19°C° 0 mm 2 m/S 687 mmHg 71%
    06:00 +20°C° 0 mm 2 m/S 687 mmHg 68%
    07:00 +23°C° 0 mm 2 m/S 688 mmHg 64%
    08:00 +25°C° 0 mm 2 m/S 688 mmHg 56%
    09:00 +27°C° 0 mm 2 m/S 688 mmHg 48%
    10:00 +29°C° 0 mm 2 m/S 689 mmHg 40%
    11:00 +29°C° 0 mm 2 m/S 689 mmHg 38%
    12:00 +29°C° 0 mm 2 m/S 689 mmHg 37%
    13:00 +29°C° 0 mm 3 m/S 688 mmHg 36%
    14:00 +29°C° 0 mm 2 m/S 688 mmHg 38%
    15:00 +28°C° 0 mm 2 m/S 688 mmHg 40%
    16:00 +27°C° 0 mm 2 m/S 688 mmHg 43%
    17:00 +26°C° 0 mm 2 m/S 688 mmHg 46%
    18:00 +24°C° 0 mm 2 m/S 687 mmHg 49%
    19:00 +21°C° 0 mm 2 m/S 687 mmHg 53%
    20:00 +21°C° 0 mm 2 m/S 687 mmHg 52%
    21:00 +20°C° 0 mm 2 m/S 687 mmHg 52%
    22:00 +20°C° 0 mm 2 m/S 687 mmHg 52%
    23:00 +20°C° 0 mm 2 m/S 687 mmHg 52%

    20 August, Montag

    Zeit Temperatur Niederschläge Wind Luftdruck Luftfeuchtigkeit
    00:00 +19°C° 0 mm 2 m/S 687 mmHg 51%
    01:00 +19°C° 0 mm 2 m/S 687 mmHg 51%
    02:00 +19°C° 0 mm 2 m/S 687 mmHg 52%
    03:00 +18°C° 0 mm 2 m/S 687 mmHg 52%
    04:00 +18°C° 0 mm 2 m/S 687 mmHg 53%
    05:00 +19°C° 0 mm 2 m/S 687 mmHg 52%
    06:00 +21°C° 0 mm 2 m/S 687 mmHg 51%
    07:00 +23°C° 0 mm 2 m/S 688 mmHg 50%
    08:00 +25°C° 0 mm 2 m/S 688 mmHg 45%
    09:00 +27°C° 0 mm 2 m/S 689 mmHg 39%
    10:00 +29°C° 0 mm 2 m/S 689 mmHg 34%
    11:00 +29°C° 0 mm 2 m/S 689 mmHg 33%
    12:00 +29°C° 0 mm 3 m/S 689 mmHg 33%
    13:00 +30°C° 0 mm 3 m/S 689 mmHg 32%
    14:00 +29°C° 0 mm 3 m/S 688 mmHg 34%
    15:00 +29°C° 0 mm 3 m/S 688 mmHg 36%
    16:00 +28°C° 0 mm 2 m/S 688 mmHg 38%
    17:00 +26°C° 0 mm 2 m/S 688 mmHg 43%
    18:00 +24°C° 0 mm 2 m/S 688 mmHg 47%
    19:00 +22°C° 0 mm 1 m/S 687 mmHg 51%
    20:00 +22°C° 0 mm 1 m/S 688 mmHg 51%
    21:00 +21°C° 0 mm 1 m/S 688 mmHg 52%
    22:00 +21°C° 0 mm 1 m/S 688 mmHg 52%
    23:00 +20°C° 0 mm 1 m/S 688 mmHg 52%

    21 August, Dienstag

    Zeit Temperatur Niederschläge Wind Luftdruck Luftfeuchtigkeit
    00:00 +20°C° 0 mm 1 m/S 688 mmHg 52%
    01:00 +19°C° 0 mm 2 m/S 688 mmHg 52%
    02:00 +19°C° 0 mm 2 m/S 688 mmHg 54%
    03:00 +18°C° 0 mm 2 m/S 688 mmHg 55%
    04:00 +18°C° 0 mm 2 m/S 687 mmHg 56%
    05:00 +19°C° 0 mm 2 m/S 688 mmHg 55%
    06:00 +21°C° 0 mm 2 m/S 688 mmHg 53%
    07:00 +23°C° 0 mm 2 m/S 689 mmHg 52%
    08:00 +25°C° 0 mm 2 m/S 689 mmHg 47%
    09:00 +26°C° 0 mm 2 m/S 689 mmHg 43%
    10:00 +28°C° 0 mm 2 m/S 690 mmHg 38%
    11:00 +29°C° 0 mm 2 m/S 690 mmHg 37%
    12:00 +29°C° 0 mm 2 m/S 689 mmHg 35%
    13:00 +30°C° 0 mm 3 m/S 689 mmHg 34%
    14:00 +29°C° 0 mm 3 m/S 689 mmHg 36%
    15:00 +29°C° 0 mm 2 m/S 689 mmHg 38%
    16:00 +28°C° 0 mm 2 m/S 689 mmHg 40%
    17:00 +26°C° 0 mm 2 m/S 688 mmHg 44%
    18:00 +24°C° 0 mm 2 m/S 688 mmHg 49%
    19:00 +22°C° 0 mm 1 m/S 688 mmHg 53%
    20:00 +21°C° 0 mm 1 m/S 688 mmHg 54%
    21:00 +21°C° 0 mm 1 m/S 688 mmHg 54%
    22:00 +20°C° 0 mm 1 m/S 688 mmHg 54%
    23:00 +20°C° 0 mm 1 m/S 688 mmHg 54%
    Mehr zeigen